Location: Asheville, NC
(35.6000°N, 82.5500°W)
Time: 13:27:23
(UTC-05:00)

Vanguard 2 Rocket - Pass Details

Date: 18 February 2018
Orbit: 555 x 3327 km, 32.9° (Epoch: 21 February)

Event Time Altitude Azimuth Distance (km) Brightness Sun altitude
Rises 01:47:38 0° 263° (W) 5,897 - -62.0°
Reaches altitude 10° 01:50:58 10° 262° (W) 5,182 - -61.7°
Maximum altitude 02:07:57 82° 178° (S) 3,245 - -59.4°
Exits shadow 02:15:09 53° 100° (E) 3,827 9.8 -58.4°
Drops below altitude 10° 02:28:25 10° 95° (E) 6,066 11.3 -56.4°
Sets 02:32:43 0° 94° (E) 6,896 11.7 -55.7°
